Hourly Data Report for September 13, 2017

All times are specified in Local Standard Time (LST). Add 1 hour to adjust for Daylight Saving Time where and when it is observed.

KUGLUKTUK A
NUNAVUT

67°49'00.000" N
115°08'38.000" W
22.60 m
2300903
71938
YCO

Download Data

Hourly Data (September 2017)
Hourly Data Report for September 13, 2017
Temp Definition
°C
Dew Point Temp Definition
°C
Rel Hum Definition
%
Wind Dir Definition
10's deg

Wind Spd Definition
km/h
Visibility Definition
km
Stn Press Definition
kPa
Hmdx Definition


Wind Chill Definition


Weather Definition


TIME
00:00 Legend Double Dagger -0.6 -2.0 90 24 19 24.1 101.41   -6 LegendNANA
01:00 Legend Double Dagger -0.3 -1.6 91 26 22 24.1 101.45   -6 LegendNANA
02:00 Legend Double Dagger -0.8 -1.9 93 25 19 24.1 101.47   -6 Mainly Clear
03:00 Legend Double Dagger -1.0 -2.1 92 24 20 24.1 101.49   -7 LegendNANA
04:00 Legend Double Dagger -0.8 -1.9 93 25 17 24.1 101.53   -6 LegendNANA
05:00 Legend Double Dagger 0.4 -1.3 88 25 16 24.1 101.57     Mostly Cloudy
06:00 Legend Double Dagger 0.6 -1.1 88 26 14 24.1 101.59     LegendNANA
07:00 Legend Double Dagger 1.0 -0.6 89 24 12 24.1 101.60     LegendNANA
08:00 Legend Double Dagger 2.3 -0.3 83 28 9 24.1 101.58     Mostly Cloudy
09:00 Legend Double Dagger 3.3 0.3 81 24 14 24.1 101.58     LegendNANA
10:00 Legend Double Dagger 4.2 0.5 77 25 9 24.1 101.56     LegendNANA
11:00 Legend Double Dagger 5.8 -0.1 66 24 15 24.1 101.52     Mainly Clear
12:00 Legend Double Dagger 6.8 -0.2 61 25 17 24.1 101.51     LegendNANA
13:00 Legend Double Dagger 7.4 0.3 61 25 16 24.1 101.52     LegendNANA
14:00 Legend Double Dagger 7.7 0.3 59 26 14 24.1 101.50     Mostly Cloudy
15:00 Legend Double Dagger 9.3 0.5 54 28 14 24.1 101.49     LegendNANA
16:00 Legend Double Dagger 8.8 0.3 55 27 8 24.1 101.47     LegendNANA
17:00 Legend Double Dagger 8.6 1.2 60 24 8 24.1 101.47     Mostly Cloudy
18:00 Legend Double Dagger 7.8 1.1 63 21 10 24.1 101.46     LegendNANA
19:00 Legend Double Dagger 7.9 1.0 62 22 9 24.1 101.47     LegendNANA
20:00 Legend Double Dagger 7.1 2.0 70 17 7 24.1 101.48     Cloudy
21:00 Legend Double Dagger 7.0 2.1 71 18 16 24.1 101.47     LegendNANA
22:00 Legend Double Dagger 6.4 1.8 72 19 17 24.1 101.47     LegendNANA
23:00 Legend Double Dagger 5.5 1.3 74 19 20 24.1 101.46     Mostly Cloudy

Notes on Data Quality.

Legend

  • E = Estimated
  • M = Missing
  • NA = Not Available
  • ‡ = Partner data that is not subject to review by the National Climate Archives
Date modified: